UAE6NM OMDB-VRMM

Flight info

Callsign UAE6NM
Flight time 3h 36m
Altitude 35000
Route ANVIX L223 TARDI N629 GIDAN P570 KITAL L894 ELBET ELBET1A
Aircraft B77W/H-SDE1E2E3FGHIJ2J3J4J5M1RWXY/LB1D1

Departure

Time 2026-04-21 05:43
Airport Dubai International Airport (OMDB)

Arrival

Time 2026-04-21 09:19
Airport Velana International Airport (VRMM)
Time Latitude Longitude Altitude Speed Heading
2026-04-21 05:00 25.25237 55.35644 22 ft 0 kts 211°
2026-04-21 05:26 25.25239 55.35645 31 ft 2 kts 211°
2026-04-21 05:26 25.25261 55.35660 33 ft 4 kts 211°
2026-04-21 05:26 25.25284 55.35675 32 ft 4 kts 211°
2026-04-21 05:27 25.25303 55.35688 32 ft 4 kts 221°
2026-04-21 05:27 25.25316 55.35710 32 ft 4 kts 269°
2026-04-21 05:27 25.25310 55.35738 32 ft 4 kts 301°
2026-04-21 05:27 25.25297 55.35762 32 ft 4 kts 302°
2026-04-21 05:28 25.25290 55.35775 33 ft 0 kts 302°
2026-04-21 05:30 25.25301 55.35755 32 ft 9 kts 302°
2026-04-21 05:30 25.25344 55.35678 29 ft 10 kts 302°
2026-04-21 05:30 25.25381 55.35611 31 ft 10 kts 302°
2026-04-21 05:31 25.25433 55.35541 31 ft 14 kts 319°
2026-04-21 05:31 25.25530 55.35476 31 ft 17 kts 330°
2026-04-21 05:31 25.25611 55.35384 27 ft 17 kts 303°
2026-04-21 05:31 25.25674 55.35276 27 ft 16 kts 302°
2026-04-21 05:32 25.25737 55.35210 30 ft 13 kts 352°
2026-04-21 05:32 25.25819 55.35248 28 ft 13 kts 30°
2026-04-21 05:32 25.25896 55.35298 30 ft 13 kts 31°
2026-04-21 05:32 25.25968 55.35356 26 ft 14 kts 46°
2026-04-21 05:33 25.26007 55.35468 26 ft 16 kts 89°
2026-04-21 05:33 25.25971 55.35585 27 ft 16 kts 120°
2026-04-21 05:33 25.25913 55.35692 26 ft 16 kts 121°
2026-04-21 05:33 25.25853 55.35798 27 ft 16 kts 122°
2026-04-21 05:34 25.25793 55.35904 27 ft 16 kts 122°
2026-04-21 05:34 25.25734 55.36010 27 ft 16 kts 122°
2026-04-21 05:34 25.25674 55.36116 27 ft 16 kts 122°
2026-04-21 05:34 25.25614 55.36222 27 ft 16 kts 122°
2026-04-21 05:35 25.25554 55.36329 27 ft 16 kts 122°
2026-04-21 05:35 25.25495 55.36435 27 ft 16 kts 122°
2026-04-21 05:35 25.25435 55.36542 27 ft 16 kts 122°
2026-04-21 05:35 25.25377 55.36647 26 ft 16 kts 121°
2026-04-21 05:36 25.25316 55.36753 26 ft 16 kts 122°
2026-04-21 05:36 25.25256 55.36859 27 ft 16 kts 122°
2026-04-21 05:36 25.25196 55.36965 27 ft 16 kts 122°
2026-04-21 05:36 25.25137 55.37071 28 ft 16 kts 122°
2026-04-21 05:37 25.25077 55.37177 28 ft 16 kts 122°
2026-04-21 05:37 25.25018 55.37282 28 ft 16 kts 122°
2026-04-21 05:37 25.24959 55.37388 28 ft 16 kts 122°
2026-04-21 05:37 25.24899 55.37494 28 ft 16 kts 122°
2026-04-21 05:38 25.24839 55.37601 28 ft 16 kts 122°
2026-04-21 05:38 25.24780 55.37707 28 ft 16 kts 122°
2026-04-21 05:38 25.24740 55.37777 27 ft 16 kts 122°
2026-04-21 05:38 25.24681 55.37883 27 ft 10 kts 122°
2026-04-21 05:39 25.24665 55.37927 27 ft 7 kts 91°
2026-04-21 05:39 25.24684 55.37962 28 ft 3 kts 39°
2026-04-21 05:39 25.24685 55.37963 28 ft 0 kts 39°
2026-04-21 05:40 25.24689 55.37967 28 ft 2 kts 39°
2026-04-21 05:41 25.24715 55.37987 28 ft 6 kts 33°
2026-04-21 05:41 25.24748 55.38010 29 ft 6 kts 33°
2026-04-21 05:41 25.24782 55.38030 30 ft 6 kts 14°
2026-04-21 05:41 25.24815 55.38012 30 ft 6 kts 305°
2026-04-21 05:42 25.24824 55.37996 30 ft 0 kts 301°
2026-04-21 05:42 25.24824 55.37995 30 ft 0 kts 301°
2026-04-21 05:42 25.24854 55.37939 30 ft 24 kts 301°
2026-04-21 05:42 25.25092 55.37511 32 ft 106 kts 301°
2026-04-21 05:43 25.25603 55.36591 30 ft 176 kts 302°
2026-04-21 05:43 25.26338 55.35308 352 ft 203 kts 302°
2026-04-21 05:43 25.27093 55.33987 1137 ft 202 kts 303°
2026-04-21 05:43 25.27826 55.32646 1921 ft 203 kts 303°
2026-04-21 05:44 25.28559 55.31315 2582 ft 202 kts 304°
2026-04-21 05:44 25.29201 55.29955 3138 ft 205 kts 287°
2026-04-21 05:44 25.29107 55.28365 3616 ft 213 kts 249°
2026-04-21 05:44 25.28473 55.26877 4061 ft 219 kts 245°
2026-04-21 05:45 25.27782 55.25262 4274 ft 243 kts 245°
2026-04-21 05:45 25.27034 55.23509 4558 ft 263 kts 245°
2026-04-21 05:45 25.26229 55.21626 5030 ft 276 kts 245°
2026-04-21 05:45 25.25400 55.19683 5675 ft 281 kts 245°
2026-04-21 05:46 25.24326 55.17886 6283 ft 285 kts 222°
2026-04-21 05:46 25.22581 55.16873 6961 ft 288 kts 192°
2026-04-21 05:46 25.20588 55.16804 7688 ft 289 kts 172°
2026-04-21 05:46 25.18712 55.17608 8300 ft 296 kts 143°
2026-04-21 05:47 25.17383 55.19313 8907 ft 299 kts 119°
2026-04-21 05:47 25.16401 55.21372 9417 ft 307 kts 118°
2026-04-21 05:47 25.15406 55.23484 10044 ft 313 kts 118°
2026-04-21 05:47 25.14369 55.25668 10389 ft 331 kts 118°
2026-04-21 05:48 25.13256 55.28002 10565 ft 355 kts 118°
2026-04-21 05:48 25.12064 55.30491 10729 ft 378 kts 118°
2026-04-21 05:48 25.10806 55.33111 11139 ft 392 kts 118°
2026-04-21 05:48 25.09617 55.35814 11770 ft 400 kts 115°
2026-04-21 05:49 25.08484 55.38634 12617 ft 403 kts 114°
2026-04-21 05:49 25.07341 55.41476 13534 ft 404 kts 115°
2026-04-21 05:49 25.06218 55.44339 14304 ft 408 kts 114°
2026-04-21 05:49 25.05119 55.47225 14971 ft 415 kts 114°
2026-04-21 05:50 25.03993 55.50185 15641 ft 421 kts 114°
2026-04-21 05:50 25.02844 55.53175 16333 ft 426 kts 114°
2026-04-21 05:50 25.01656 55.56185 17050 ft 430 kts 117°
2026-04-21 05:50 25.00204 55.59090 17708 ft 435 kts 123°
2026-04-21 05:51 24.98591 55.61898 18326 ft 440 kts 124°
2026-04-21 05:51 24.96944 55.64763 18919 ft 445 kts 123°
2026-04-21 05:51 24.95328 55.67689 19511 ft 449 kts 122°
2026-04-21 05:51 24.93709 55.70651 20113 ft 453 kts 124°
2026-04-21 05:52 24.91915 55.73526 20707 ft 456 kts 128°
2026-04-21 05:52 24.89997 55.76328 21268 ft 460 kts 129°
2026-04-21 05:52 24.88047 55.79144 21862 ft 464 kts 129°
2026-04-21 05:52 24.86103 55.82018 22397 ft 470 kts 128°
2026-04-21 05:53 24.84166 55.84932 22945 ft 473 kts 128°
2026-04-21 05:53 24.82209 55.87868 23517 ft 476 kts 129°
2026-04-21 05:53 24.80247 55.90776 23988 ft 479 kts 129°
2026-04-21 05:53 24.78247 55.93717 24456 ft 481 kts 130°
2026-04-21 05:54 24.75998 55.96449 24863 ft 482 kts 139°
2026-04-21 05:54 24.73482 55.98898 25290 ft 484 kts 142°
2026-04-21 05:54 24.70925 56.01341 25766 ft 487 kts 141°
2026-04-21 05:54 24.68404 56.03865 26224 ft 490 kts 139°
2026-04-21 05:55 24.65936 56.06404 26668 ft 493 kts 139°
2026-04-21 05:55 24.63421 56.08999 27129 ft 496 kts 139°
2026-04-21 05:55 24.60881 56.11607 27559 ft 499 kts 139°
2026-04-21 05:55 24.58337 56.14217 27970 ft 502 kts 139°
2026-04-21 05:56 24.55866 56.16962 28354 ft 507 kts 134°
2026-04-21 05:56 24.53554 56.19907 28733 ft 510 kts 132°
2026-04-21 05:56 24.51277 56.22856 29081 ft 513 kts 132°
2026-04-21 05:56 24.48958 56.25857 29424 ft 516 kts 132°
2026-04-21 05:57 24.46621 56.28862 29852 ft 516 kts 133°
2026-04-21 05:57 24.44286 56.31845 30318 ft 514 kts 133°
2026-04-21 05:57 24.41957 56.34808 30785 ft 512 kts 133°
2026-04-21 05:57 24.39623 56.37771 31154 ft 512 kts 133°
2026-04-21 05:58 24.37282 56.40738 31453 ft 514 kts 133°
2026-04-21 05:58 24.34965 56.43676 31761 ft 515 kts 133°
2026-04-21 05:58 24.32613 56.46660 32109 ft 516 kts 133°
2026-04-21 05:58 24.30265 56.49646 32458 ft 516 kts 131°
2026-04-21 05:59 24.28053 56.52752 32775 ft 518 kts 128°
2026-04-21 05:59 24.25930 56.55958 33090 ft 519 kts 127°
2026-04-21 05:59 24.23852 56.59136 33527 ft 516 kts 127°
2026-04-21 06:00 24.19681 56.65493 34243 ft 515 kts 127°
2026-04-21 06:00 24.15446 56.71874 34555 ft 522 kts 127°
2026-04-21 06:00 24.13306 56.75088 34777 ft 523 kts 127°
2026-04-21 06:01 24.11147 56.78327 34834 ft 528 kts 127°
2026-04-21 06:01 24.06811 56.84834 34870 ft 527 kts 127°
2026-04-21 06:02 24.02510 56.91275 34874 ft 520 kts 127°
2026-04-21 06:02 23.98235 56.97630 34880 ft 520 kts 127°
2026-04-21 06:03 23.93937 57.04012 34883 ft 521 kts 127°
2026-04-21 06:03 23.89659 57.10366 34887 ft 522 kts 127°
2026-04-21 06:04 23.85342 57.16779 34870 ft 523 kts 127°
2026-04-21 06:04 23.81035 57.23185 34884 ft 523 kts 127°
2026-04-21 06:05 23.76758 57.29538 34880 ft 523 kts 127°
2026-04-21 06:05 23.72437 57.35946 34888 ft 523 kts 127°
2026-04-21 06:06 23.67998 57.42239 34888 ft 522 kts 129°
2026-04-21 06:06 23.63473 57.48381 34878 ft 521 kts 129°
2026-04-21 06:07 23.58950 57.54565 34876 ft 520 kts 129°
2026-04-21 06:07 23.54483 57.60718 34887 ft 519 kts 129°
2026-04-21 06:08 23.50001 57.66887 34912 ft 518 kts 129°
2026-04-21 06:08 23.45515 57.73030 34889 ft 517 kts 129°
2026-04-21 06:09 23.41015 57.79162 34907 ft 516 kts 129°
2026-04-21 06:09 23.36567 57.85220 34904 ft 515 kts 129°
2026-04-21 06:10 23.32073 57.91338 34915 ft 515 kts 129°
2026-04-21 06:10 23.27606 57.97414 34910 ft 513 kts 129°
2026-04-21 06:11 23.23236 58.03554 34907 ft 513 kts 125°
2026-04-21 06:11 23.19236 58.09929 34906 ft 512 kts 124°
2026-04-21 06:12 23.15235 58.16347 34904 ft 512 kts 124°
2026-04-21 06:12 23.11202 58.22746 34912 ft 512 kts 124°
2026-04-21 06:13 23.07191 58.29085 34915 ft 511 kts 124°
2026-04-21 06:13 23.02988 58.35263 34905 ft 510 kts 133°
2026-04-21 06:14 22.97713 58.40375 34921 ft 508 kts 146°
2026-04-21 06:14 22.91718 58.44399 34923 ft 507 kts 150°
2026-04-21 06:15 22.85643 58.48321 34920 ft 508 kts 150°
2026-04-21 06:15 22.79620 58.52281 34913 ft 508 kts 149°
2026-04-21 06:16 22.73574 58.56287 34919 ft 508 kts 149°
2026-04-21 06:16 22.67532 58.60282 34931 ft 508 kts 149°
2026-04-21 06:17 22.61517 58.64251 34919 ft 508 kts 149°
2026-04-21 06:17 22.55446 58.68254 34910 ft 509 kts 149°
2026-04-21 06:18 22.49442 58.72212 34933 ft 509 kts 149°
2026-04-21 06:18 22.43373 58.76208 34922 ft 510 kts 149°
2026-04-21 06:19 22.37306 58.80199 34912 ft 510 kts 149°
2026-04-21 06:19 22.31265 58.84170 34913 ft 511 kts 149°
2026-04-21 06:20 22.25171 58.88171 34921 ft 511 kts 149°
2026-04-21 06:20 22.19124 58.92133 34918 ft 511 kts 149°
2026-04-21 06:21 22.13017 58.96126 34915 ft 512 kts 149°
2026-04-21 06:21 22.06954 59.00087 34915 ft 512 kts 149°
2026-04-21 06:22 22.00866 59.04062 34919 ft 511 kts 149°
2026-04-21 06:22 21.94769 59.08040 34900 ft 511 kts 149°
2026-04-21 06:23 21.88694 59.11999 34916 ft 510 kts 149°
2026-04-21 06:23 21.82621 59.15953 34887 ft 509 kts 149°
2026-04-21 06:24 21.76578 59.19883 34907 ft 509 kts 149°
2026-04-21 06:24 21.70507 59.23828 34904 ft 509 kts 149°
2026-04-21 06:25 21.64465 59.27751 34901 ft 510 kts 149°
2026-04-21 06:25 21.58382 59.31696 34895 ft 510 kts 149°
2026-04-21 06:26 21.53311 59.34986 34903 ft 511 kts 149°
2026-04-21 06:26 21.47239 59.38926 34896 ft 512 kts 149°
2026-04-21 06:27 21.41123 59.42890 34900 ft 513 kts 149°
2026-04-21 06:27 21.35008 59.46850 34898 ft 513 kts 149°
2026-04-21 06:28 21.28927 59.50784 34896 ft 513 kts 149°
2026-04-21 06:28 21.22780 59.54756 34903 ft 514 kts 149°
2026-04-21 06:29 21.16691 59.58688 34903 ft 514 kts 149°
2026-04-21 06:29 21.10550 59.62653 34907 ft 514 kts 149°
2026-04-21 06:30 21.04418 59.66609 34898 ft 514 kts 149°
2026-04-21 06:30 20.98311 59.70543 34903 ft 515 kts 149°
2026-04-21 06:31 20.92160 59.74486 34904 ft 515 kts 149°
2026-04-21 06:31 20.86042 59.78403 34904 ft 515 kts 149°
2026-04-21 06:32 20.79890 59.82341 34896 ft 515 kts 149°
2026-04-21 06:32 20.73734 59.86278 34905 ft 515 kts 149°
2026-04-21 06:33 20.67566 59.90221 34912 ft 516 kts 149°
2026-04-21 06:33 20.61406 59.94154 34908 ft 516 kts 149°
2026-04-21 06:34 20.55264 59.98071 34902 ft 516 kts 149°
2026-04-21 06:34 20.49079 60.02013 34905 ft 516 kts 149°
2026-04-21 06:35 20.42926 60.05930 34912 ft 516 kts 149°
2026-04-21 06:35 20.36774 60.09844 34910 ft 517 kts 149°
2026-04-21 06:36 20.30583 60.13778 34912 ft 517 kts 149°
2026-04-21 06:36 20.24394 60.17708 34917 ft 517 kts 149°
2026-04-21 06:37 20.18232 60.21616 34916 ft 518 kts 149°
2026-04-21 06:37 20.12057 60.25531 34912 ft 518 kts 149°
2026-04-21 06:38 20.05883 60.29517 34908 ft 519 kts 146°
2026-04-21 06:38 20.00260 60.34343 34906 ft 518 kts 137°
2026-04-21 06:39 19.94956 60.39480 34916 ft 518 kts 137°
2026-04-21 06:39 19.89591 60.44647 34913 ft 519 kts 137°
2026-04-21 06:40 19.84238 60.49747 34920 ft 519 kts 138°
2026-04-21 06:40 19.78839 60.54866 34911 ft 519 kts 138°
2026-04-21 06:41 19.73473 60.59947 34911 ft 518 kts 137°
2026-04-21 06:41 19.68073 60.65059 34915 ft 518 kts 137°
2026-04-21 06:42 19.62721 60.70123 34912 ft 518 kts 137°
2026-04-21 06:42 19.57331 60.75219 34926 ft 518 kts 138°
2026-04-21 06:43 19.51936 60.80314 34917 ft 518 kts 138°
2026-04-21 06:43 19.46552 60.85395 34913 ft 517 kts 138°
2026-04-21 06:44 19.41211 60.90430 34914 ft 516 kts 138°
2026-04-21 06:44 19.35839 60.95488 34915 ft 516 kts 138°
2026-04-21 06:45 19.30492 61.00520 34912 ft 515 kts 138°
2026-04-21 06:45 19.25123 61.05567 34916 ft 516 kts 138°
2026-04-21 06:46 19.19742 61.10621 34920 ft 515 kts 138°
2026-04-21 06:46 19.14402 61.15632 34918 ft 516 kts 138°
2026-04-21 06:47 19.09030 61.20669 34922 ft 516 kts 138°
2026-04-21 06:47 19.03650 61.25707 34920 ft 516 kts 138°
2026-04-21 06:48 18.98293 61.30720 34911 ft 516 kts 138°
2026-04-21 06:48 18.92905 61.35758 34932 ft 516 kts 137°
2026-04-21 06:49 18.87554 61.40757 34916 ft 515 kts 137°
2026-04-21 06:49 18.82192 61.45761 34913 ft 513 kts 137°
2026-04-21 06:50 18.76859 61.50734 34906 ft 511 kts 137°
2026-04-21 06:50 18.71530 61.55699 34919 ft 510 kts 137°
2026-04-21 06:51 18.66222 61.60640 34924 ft 512 kts 137°
2026-04-21 06:51 18.60861 61.65626 34923 ft 514 kts 137°
2026-04-21 06:52 18.55487 61.70621 34925 ft 515 kts 137°
2026-04-21 06:52 18.50096 61.75625 34921 ft 516 kts 137°
2026-04-21 06:53 18.44721 61.80611 34920 ft 518 kts 137°
2026-04-21 06:53 18.39297 61.85639 34922 ft 519 kts 137°
2026-04-21 06:54 18.33867 61.90667 34919 ft 519 kts 137°
2026-04-21 06:54 18.28471 61.95658 34927 ft 517 kts 137°
2026-04-21 06:55 18.23076 62.00645 34912 ft 514 kts 137°
2026-04-21 06:55 18.17731 62.05581 34915 ft 512 kts 137°
2026-04-21 06:56 18.12369 62.10530 34916 ft 510 kts 137°
2026-04-21 06:56 18.07062 62.15424 34919 ft 510 kts 137°
2026-04-21 06:57 18.01713 62.20352 34919 ft 511 kts 137°
2026-04-21 06:57 17.96344 62.25294 34929 ft 512 kts 137°
2026-04-21 06:58 17.90981 62.30227 34917 ft 512 kts 137°
2026-04-21 06:58 17.85651 62.35125 34918 ft 512 kts 137°
2026-04-21 06:59 17.80278 62.40059 34918 ft 512 kts 137°
2026-04-21 06:59 17.74909 62.44984 34916 ft 512 kts 137°
2026-04-21 07:00 17.69571 62.49878 34914 ft 512 kts 137°
2026-04-21 07:00 17.64196 62.54800 34935 ft 512 kts 137°
2026-04-21 07:01 17.58848 62.59695 34921 ft 512 kts 137°
2026-04-21 07:01 17.50818 62.67036 34904 ft 510 kts 137°
2026-04-21 07:02 17.45468 62.71923 34909 ft 509 kts 137°
2026-04-21 07:02 17.40123 62.76800 34918 ft 509 kts 137°
2026-04-21 07:03 17.34792 62.81662 34926 ft 511 kts 137°
2026-04-21 07:03 17.29435 62.86544 34918 ft 512 kts 137°
2026-04-21 07:04 17.24066 62.91430 34921 ft 510 kts 137°
2026-04-21 07:04 17.18713 62.96300 34921 ft 508 kts 137°
2026-04-21 07:05 17.13409 63.01122 34906 ft 508 kts 137°
2026-04-21 07:05 17.08050 63.05990 34930 ft 510 kts 137°
2026-04-21 07:06 17.02701 63.10847 34930 ft 513 kts 137°
2026-04-21 07:06 16.97244 63.15717 34924 ft 514 kts 139°
2026-04-21 07:07 16.91765 63.20444 34915 ft 513 kts 139°
2026-04-21 07:07 16.86261 63.25175 34913 ft 510 kts 139°
2026-04-21 07:08 16.80827 63.29868 34912 ft 507 kts 139°
2026-04-21 07:08 16.75397 63.34569 34910 ft 506 kts 139°
2026-04-21 07:09 16.69974 63.39262 34918 ft 505 kts 139°
2026-04-21 07:09 16.64560 63.43943 34931 ft 505 kts 139°
2026-04-21 07:10 16.59172 63.48597 34916 ft 505 kts 139°
2026-04-21 07:10 16.53737 63.53288 34917 ft 507 kts 139°
2026-04-21 07:11 16.48320 63.57959 34915 ft 508 kts 139°
2026-04-21 07:11 16.42872 63.62653 34917 ft 510 kts 139°
2026-04-21 07:12 16.37399 63.67366 34914 ft 511 kts 139°
2026-04-21 07:12 16.31909 63.72090 34912 ft 512 kts 139°
2026-04-21 07:13 16.26402 63.76824 34924 ft 512 kts 139°
2026-04-21 07:13 16.20920 63.81533 34918 ft 513 kts 139°
2026-04-21 07:14 16.15415 63.86259 34910 ft 512 kts 139°
2026-04-21 07:14 16.09945 63.90951 34910 ft 512 kts 139°
2026-04-21 07:15 16.04445 63.95666 34912 ft 511 kts 139°
2026-04-21 07:15 15.99874 63.99581 34905 ft 512 kts 139°
2026-04-21 07:16 15.94359 64.04303 34913 ft 513 kts 139°
2026-04-21 07:16 15.88863 64.09004 34920 ft 514 kts 140°
2026-04-21 07:17 15.83315 64.13746 34916 ft 515 kts 140°
2026-04-21 07:17 15.77773 64.18480 34908 ft 514 kts 140°
2026-04-21 07:18 15.72270 64.23177 34899 ft 514 kts 140°
2026-04-21 07:18 15.66730 64.27902 34911 ft 514 kts 140°
2026-04-21 07:19 15.61186 64.32628 34911 ft 515 kts 140°
2026-04-21 07:19 15.55679 64.37317 34919 ft 515 kts 140°
2026-04-21 07:20 15.50136 64.42035 34918 ft 514 kts 140°
2026-04-21 07:20 15.44625 64.46722 34899 ft 514 kts 140°
2026-04-21 07:21 15.39082 64.51433 34912 ft 514 kts 140°
2026-04-21 07:21 15.33542 64.56137 34911 ft 515 kts 140°
2026-04-21 07:22 15.28019 64.60825 34911 ft 515 kts 140°
2026-04-21 07:22 15.22460 64.65539 34910 ft 516 kts 140°
2026-04-21 07:23 15.16900 64.70251 34902 ft 516 kts 140°
2026-04-21 07:23 15.11370 64.74934 34903 ft 517 kts 140°
2026-04-21 07:24 15.05801 64.79647 34910 ft 517 kts 140°
2026-04-21 07:24 15.00210 64.84375 34913 ft 518 kts 140°
2026-04-21 07:25 14.94644 64.89080 34911 ft 519 kts 140°
2026-04-21 07:25 14.89041 64.93811 34911 ft 519 kts 140°
2026-04-21 07:26 14.83441 64.98538 34907 ft 519 kts 140°
2026-04-21 07:26 14.77878 65.03230 34911 ft 519 kts 140°
2026-04-21 07:27 14.72279 65.07948 34905 ft 519 kts 140°
2026-04-21 07:27 14.66692 65.12655 34904 ft 518 kts 141°
2026-04-21 07:28 14.61102 65.17361 34907 ft 517 kts 141°
2026-04-21 07:28 14.55546 65.22033 34899 ft 517 kts 141°
2026-04-21 07:29 14.49947 65.26736 34904 ft 517 kts 141°
2026-04-21 07:29 14.44397 65.31395 34919 ft 517 kts 141°
2026-04-21 07:30 14.38814 65.36081 34905 ft 517 kts 141°
2026-04-21 07:30 14.33233 65.40762 34906 ft 516 kts 141°
2026-04-21 07:31 14.27652 65.45441 34894 ft 516 kts 141°
2026-04-21 07:31 14.22105 65.50087 34903 ft 515 kts 141°
2026-04-21 07:32 14.16528 65.54755 34899 ft 515 kts 141°
2026-04-21 07:32 14.10986 65.59392 34916 ft 516 kts 141°
2026-04-21 07:33 14.05409 65.64055 34926 ft 515 kts 141°
2026-04-21 07:33 13.99863 65.68689 34902 ft 515 kts 141°
2026-04-21 07:34 13.94295 65.73337 34899 ft 514 kts 141°
2026-04-21 07:34 13.88742 65.77971 34900 ft 513 kts 141°
2026-04-21 07:35 13.83227 65.82570 34906 ft 512 kts 141°
2026-04-21 07:35 13.77677 65.87195 34905 ft 512 kts 141°
2026-04-21 07:36 13.72130 65.91815 34907 ft 512 kts 141°
2026-04-21 07:36 13.66619 65.96402 34904 ft 511 kts 142°
2026-04-21 07:37 13.61077 66.01012 34907 ft 511 kts 142°
2026-04-21 07:37 13.55539 66.05616 34903 ft 511 kts 142°
2026-04-21 07:38 13.50044 66.10180 34901 ft 510 kts 142°
2026-04-21 07:38 13.44514 66.14772 34904 ft 510 kts 142°
2026-04-21 07:39 13.38989 66.19356 34904 ft 510 kts 142°
2026-04-21 07:39 13.33480 66.23925 34909 ft 511 kts 142°
2026-04-21 07:40 13.27939 66.28517 34897 ft 511 kts 142°
2026-04-21 07:40 13.22387 66.33115 34912 ft 511 kts 142°
2026-04-21 07:41 13.16876 66.37677 34896 ft 510 kts 142°
2026-04-21 07:41 13.11345 66.42253 34902 ft 510 kts 142°
2026-04-21 07:42 13.05855 66.46792 34890 ft 509 kts 142°
2026-04-21 07:42 13.00323 66.51363 34904 ft 510 kts 142°
2026-04-21 07:43 12.94811 66.55915 34902 ft 510 kts 142°
2026-04-21 07:43 12.89285 66.60475 34909 ft 510 kts 143°
2026-04-21 07:44 12.83768 66.65027 34897 ft 508 kts 143°
2026-04-21 07:44 12.78249 66.69576 34896 ft 508 kts 143°
2026-04-21 07:45 12.72774 66.74087 34902 ft 507 kts 143°
2026-04-21 07:45 12.67265 66.78623 34903 ft 507 kts 143°
2026-04-21 07:46 12.61754 66.83158 34903 ft 508 kts 143°
2026-04-21 07:46 12.56263 66.87674 34902 ft 508 kts 143°
2026-04-21 07:47 12.50729 66.92223 34906 ft 508 kts 143°
2026-04-21 07:47 12.45255 66.96721 34883 ft 507 kts 143°
2026-04-21 07:48 12.39755 67.01237 34893 ft 505 kts 143°
2026-04-21 07:48 12.34263 67.05744 34896 ft 504 kts 143°
2026-04-21 07:49 12.28786 67.10236 34904 ft 504 kts 143°
2026-04-21 07:49 12.23338 67.14702 34900 ft 503 kts 143°
2026-04-21 07:50 12.17865 67.19186 34899 ft 504 kts 143°
2026-04-21 07:50 12.12423 67.23643 34883 ft 503 kts 144°
2026-04-21 07:51 12.06955 67.28119 34894 ft 502 kts 144°
2026-04-21 07:51 12.01505 67.32578 34891 ft 501 kts 144°
2026-04-21 07:52 11.96090 67.37006 34898 ft 500 kts 144°
2026-04-21 07:52 11.90648 67.41450 34894 ft 499 kts 144°
2026-04-21 07:53 11.85246 67.45860 34891 ft 499 kts 144°
2026-04-21 07:53 11.79814 67.50293 34890 ft 499 kts 144°
2026-04-21 07:54 11.74408 67.54704 34896 ft 499 kts 144°
2026-04-21 07:54 11.68989 67.59124 34898 ft 498 kts 144°
2026-04-21 07:55 11.63584 67.63530 34887 ft 496 kts 145°
2026-04-21 07:55 11.58189 67.67925 34891 ft 494 kts 145°
2026-04-21 07:56 11.52842 67.72278 34898 ft 493 kts 145°
2026-04-21 07:56 11.47497 67.76628 34885 ft 493 kts 145°
2026-04-21 07:57 11.42129 67.80994 34895 ft 493 kts 145°
2026-04-21 07:57 11.36762 67.85357 34896 ft 493 kts 145°
2026-04-21 07:58 11.31416 67.89701 34895 ft 494 kts 145°
2026-04-21 07:58 11.26020 67.94083 34893 ft 495 kts 145°
2026-04-21 07:59 11.20630 67.98459 34894 ft 495 kts 145°
2026-04-21 07:59 11.15259 68.02817 34884 ft 495 kts 144°
2026-04-21 08:00 11.09857 68.07199 34896 ft 495 kts 145°
2026-04-21 08:00 11.04493 68.11547 34897 ft 496 kts 145°
2026-04-21 08:01 10.99090 68.15925 34894 ft 496 kts 145°
2026-04-21 08:02 10.91008 68.22470 34902 ft 494 kts 145°
2026-04-21 08:02 10.86528 68.26097 34886 ft 493 kts 145°
2026-04-21 08:03 10.81171 68.30430 34888 ft 490 kts 145°
2026-04-21 08:03 10.75860 68.34724 34890 ft 488 kts 145°
2026-04-21 08:04 10.70541 68.39023 34893 ft 487 kts 145°
2026-04-21 08:04 10.65226 68.43316 34889 ft 487 kts 145°
2026-04-21 08:05 10.59928 68.47593 34886 ft 488 kts 145°
2026-04-21 08:05 10.54615 68.51881 34885 ft 488 kts 145°
2026-04-21 08:06 10.49285 68.56181 34887 ft 488 kts 145°
2026-04-21 08:06 10.43960 68.60476 34886 ft 487 kts 145°
2026-04-21 08:07 10.38677 68.64734 34884 ft 486 kts 146°
2026-04-21 08:07 10.33366 68.69012 34881 ft 486 kts 146°
2026-04-21 08:08 10.28104 68.73250 34882 ft 485 kts 146°
2026-04-21 08:08 10.22800 68.77520 34882 ft 485 kts 146°
2026-04-21 08:09 10.17508 68.81777 34873 ft 484 kts 145°
2026-04-21 08:09 10.12254 68.86002 34882 ft 485 kts 145°
2026-04-21 08:10 10.06972 68.90249 34871 ft 483 kts 146°
2026-04-21 08:10 10.01694 68.94491 34871 ft 481 kts 146°
2026-04-21 08:11 9.96484 68.98676 34878 ft 480 kts 146°
2026-04-21 08:11 9.91239 69.02886 34874 ft 479 kts 146°
2026-04-21 08:12 9.86050 69.07051 34868 ft 478 kts 146°
2026-04-21 08:12 9.80815 69.11251 34878 ft 478 kts 146°
2026-04-21 08:13 9.75593 69.15440 34891 ft 479 kts 146°
2026-04-21 08:13 9.70379 69.19617 34882 ft 480 kts 146°
2026-04-21 08:14 9.65136 69.23812 34876 ft 479 kts 146°
2026-04-21 08:14 9.59890 69.28009 34873 ft 478 kts 146°
2026-04-21 08:15 9.54699 69.32161 34857 ft 477 kts 146°
2026-04-21 08:15 9.49486 69.36330 34878 ft 477 kts 146°
2026-04-21 08:16 9.44274 69.40496 34881 ft 477 kts 146°
2026-04-21 08:16 9.39079 69.44646 34878 ft 477 kts 146°
2026-04-21 08:17 9.33858 69.48816 34878 ft 478 kts 146°
2026-04-21 08:17 9.28625 69.52993 34872 ft 478 kts 147°
2026-04-21 08:18 9.23431 69.57140 34870 ft 477 kts 147°
2026-04-21 08:18 9.18216 69.61300 34865 ft 476 kts 147°
2026-04-21 08:19 9.13033 69.65434 34870 ft 475 kts 147°
2026-04-21 08:19 9.07822 69.69587 34870 ft 475 kts 147°
2026-04-21 08:20 9.02625 69.73729 34871 ft 475 kts 147°
2026-04-21 08:20 8.97451 69.77850 34871 ft 475 kts 147°
2026-04-21 08:21 8.92246 69.81994 34874 ft 475 kts 147°
2026-04-21 08:21 8.87045 69.86134 34861 ft 475 kts 146°
2026-04-21 08:22 8.81879 69.90244 34874 ft 475 kts 147°
2026-04-21 08:22 8.76679 69.94381 34870 ft 474 kts 147°
2026-04-21 08:23 8.71494 69.98504 34871 ft 474 kts 147°
2026-04-21 08:23 8.66325 70.02611 34869 ft 474 kts 147°
2026-04-21 08:24 8.61130 70.06739 34868 ft 473 kts 147°
2026-04-21 08:24 8.55982 70.10827 34867 ft 473 kts 147°
2026-04-21 08:25 8.50794 70.14946 34865 ft 473 kts 146°
2026-04-21 08:25 8.45607 70.19063 34869 ft 473 kts 146°
2026-04-21 08:26 8.40449 70.23155 34871 ft 473 kts 147°
2026-04-21 08:26 8.35251 70.27278 34868 ft 473 kts 147°
2026-04-21 08:27 8.30101 70.31362 34866 ft 472 kts 147°
2026-04-21 08:27 8.24944 70.35448 34863 ft 472 kts 147°
2026-04-21 08:28 8.19773 70.39545 34856 ft 472 kts 146°
2026-04-21 08:28 8.14587 70.43652 34863 ft 472 kts 146°
2026-04-21 08:29 8.09448 70.47722 34865 ft 472 kts 146°
2026-04-21 08:29 8.04269 70.51820 34864 ft 472 kts 146°
2026-04-21 08:30 7.99129 70.55888 34858 ft 472 kts 147°
2026-04-21 08:30 7.93948 70.59986 34860 ft 472 kts 147°
2026-04-21 08:31 7.88800 70.64056 34860 ft 472 kts 147°
2026-04-21 08:31 7.83609 70.68159 34852 ft 472 kts 146°
2026-04-21 08:32 7.78427 70.72254 34855 ft 473 kts 146°
2026-04-21 08:32 7.73238 70.76354 34854 ft 473 kts 146°
2026-04-21 08:33 7.68073 70.80433 34856 ft 474 kts 146°
2026-04-21 08:33 7.62876 70.84536 34855 ft 474 kts 146°
2026-04-21 08:34 7.57706 70.88617 34852 ft 474 kts 146°
2026-04-21 08:34 7.52496 70.92729 34867 ft 474 kts 146°
2026-04-21 08:35 7.47324 70.96806 34853 ft 474 kts 146°
2026-04-21 08:35 7.42115 71.00902 34855 ft 474 kts 146°
2026-04-21 08:36 7.36913 71.04993 34856 ft 474 kts 146°
2026-04-21 08:36 7.31741 71.09060 34854 ft 474 kts 146°
2026-04-21 08:37 7.26540 71.13150 34852 ft 474 kts 146°
2026-04-21 08:37 7.21335 71.17241 34854 ft 474 kts 146°
2026-04-21 08:38 7.16164 71.21305 34862 ft 473 kts 146°
2026-04-21 08:38 7.10966 71.25389 34846 ft 474 kts 146°
2026-04-21 08:39 7.05763 71.29475 34847 ft 474 kts 146°
2026-04-21 08:39 7.00593 71.33535 34848 ft 474 kts 146°
2026-04-21 08:40 6.95392 71.37617 34860 ft 474 kts 146°
2026-04-21 08:40 6.90166 71.41718 34862 ft 474 kts 146°
2026-04-21 08:41 6.84987 71.45781 34846 ft 474 kts 146°
2026-04-21 08:41 6.79782 71.49863 34839 ft 474 kts 146°
2026-04-21 08:42 6.74570 71.53949 34851 ft 475 kts 146°
2026-04-21 08:42 6.69349 71.58042 34855 ft 475 kts 146°
2026-04-21 08:43 6.64158 71.62110 34852 ft 475 kts 146°
2026-04-21 08:43 6.58947 71.66192 34855 ft 474 kts 146°
2026-04-21 08:44 6.53729 71.70280 34855 ft 474 kts 146°
2026-04-21 08:44 6.48552 71.74333 34844 ft 474 kts 146°
2026-04-21 08:45 6.43340 71.78414 34851 ft 474 kts 146°
2026-04-21 08:45 6.38153 71.82474 34846 ft 474 kts 146°
2026-04-21 08:46 6.32679 71.86094 34850 ft 469 kts 154°
2026-04-21 08:46 6.26886 71.89166 34850 ft 469 kts 156°
2026-04-21 08:47 6.21148 71.92234 34844 ft 470 kts 155°
2026-04-21 08:47 6.15404 71.95415 34848 ft 470 kts 154°
2026-04-21 08:48 6.09717 71.98601 34843 ft 471 kts 154°
2026-04-21 08:48 6.03983 72.01812 34842 ft 472 kts 154°
2026-04-21 08:49 5.99199 72.04485 34846 ft 472 kts 154°
2026-04-21 08:49 5.92509 72.08222 34842 ft 473 kts 154°
2026-04-21 08:50 5.87715 72.10899 34843 ft 473 kts 154°
2026-04-21 08:50 5.81937 72.14122 34841 ft 473 kts 154°
2026-04-21 08:51 5.76209 72.17314 34833 ft 473 kts 154°
2026-04-21 08:51 5.70449 72.20525 34843 ft 473 kts 154°
2026-04-21 08:52 5.64688 72.23736 34840 ft 473 kts 154°
2026-04-21 08:52 5.58957 72.26930 34840 ft 473 kts 154°
2026-04-21 08:53 5.53188 72.30145 34837 ft 473 kts 154°
2026-04-21 08:53 5.47447 72.33343 34838 ft 473 kts 154°
2026-04-21 08:54 5.41689 72.36550 34839 ft 473 kts 153°
2026-04-21 08:54 5.35963 72.39739 34810 ft 461 kts 153°
2026-04-21 08:54 5.33227 72.41266 34795 ft 449 kts 153°
2026-04-21 08:55 5.30513 72.42779 34554 ft 441 kts 154°
2026-04-21 08:55 5.27844 72.44265 34181 ft 436 kts 154°
2026-04-21 08:55 5.25194 72.45739 33729 ft 433 kts 154°
2026-04-21 08:55 5.22589 72.47187 33213 ft 431 kts 154°
2026-04-21 08:56 5.19976 72.48640 32734 ft 428 kts 154°
2026-04-21 08:56 5.17371 72.50088 32245 ft 426 kts 154°
2026-04-21 08:56 5.14776 72.51532 31786 ft 424 kts 154°
2026-04-21 08:56 5.12233 72.52946 31325 ft 422 kts 154°
2026-04-21 08:57 5.09668 72.54373 30862 ft 420 kts 154°
2026-04-21 08:57 5.07112 72.55794 30386 ft 419 kts 154°
2026-04-21 08:57 5.04560 72.57213 29916 ft 418 kts 154°
2026-04-21 08:57 5.02010 72.58631 29382 ft 417 kts 154°
2026-04-21 08:58 4.99508 72.60022 28883 ft 415 kts 154°
2026-04-21 08:58 4.96989 72.61422 28393 ft 413 kts 154°
2026-04-21 08:58 4.94477 72.62819 27929 ft 411 kts 154°
2026-04-21 08:58 4.91972 72.64211 27447 ft 409 kts 153°
2026-04-21 08:59 4.89516 72.65576 26991 ft 407 kts 153°
2026-04-21 08:59 4.87039 72.66953 26524 ft 406 kts 153°
2026-04-21 08:59 4.84569 72.68325 26061 ft 404 kts 153°
2026-04-21 08:59 4.82108 72.69693 25596 ft 403 kts 153°
2026-04-21 09:00 4.79658 72.71054 25123 ft 402 kts 153°
2026-04-21 09:00 4.77241 72.72397 24668 ft 401 kts 153°
2026-04-21 09:00 4.74800 72.73753 24200 ft 401 kts 152°
2026-04-21 09:00 4.72359 72.75108 23744 ft 400 kts 152°
2026-04-21 09:01 4.69920 72.76463 23255 ft 400 kts 152°
2026-04-21 09:01 4.67479 72.77819 22734 ft 398 kts 152°
2026-04-21 09:01 4.65056 72.79165 22257 ft 396 kts 152°
2026-04-21 09:01 4.62677 72.80486 21799 ft 394 kts 152°
2026-04-21 09:02 4.60278 72.81818 21341 ft 392 kts 152°
2026-04-21 09:02 4.57896 72.83141 20891 ft 391 kts 152°
2026-04-21 09:02 4.55519 72.84461 20433 ft 389 kts 152°
2026-04-21 09:03 4.50822 72.87068 19548 ft 387 kts 151°
2026-04-21 09:03 4.48466 72.88376 19085 ft 387 kts 151°
2026-04-21 09:03 4.46106 72.89686 18627 ft 387 kts 151°
2026-04-21 09:03 4.43739 72.91000 18168 ft 387 kts 151°
2026-04-21 09:04 4.41376 72.92311 17650 ft 387 kts 151°
2026-04-21 09:04 4.39050 72.93602 17182 ft 386 kts 151°
2026-04-21 09:04 4.36707 72.94903 16716 ft 384 kts 151°
2026-04-21 09:04 4.34366 72.96201 16255 ft 383 kts 151°
2026-04-21 09:05 4.32048 72.97487 15804 ft 381 kts 151°
2026-04-21 09:05 4.29729 72.98774 15355 ft 379 kts 151°
2026-04-21 09:05 4.27438 73.00045 14894 ft 371 kts 151°
2026-04-21 09:05 4.25226 73.01272 14451 ft 354 kts 151°
2026-04-21 09:06 4.23119 73.02441 14043 ft 339 kts 151°
2026-04-21 09:06 4.21065 73.03581 13648 ft 337 kts 151°
2026-04-21 09:06 4.19012 73.04719 13204 ft 338 kts 151°
2026-04-21 09:06 4.16978 73.05847 12786 ft 338 kts 151°
2026-04-21 09:07 4.14923 73.06986 12375 ft 338 kts 151°
2026-04-21 09:07 4.12860 73.08130 11969 ft 337 kts 151°
2026-04-21 09:07 4.10799 73.09273 11543 ft 338 kts 151°
2026-04-21 09:07 4.08739 73.10415 11123 ft 339 kts 151°
2026-04-21 09:08 4.06700 73.11546 10715 ft 339 kts 151°
2026-04-21 09:08 4.04664 73.12675 10360 ft 327 kts 151°
2026-04-21 09:08 4.02696 73.13767 10215 ft 319 kts 151°
2026-04-21 09:08 4.00775 73.14832 10078 ft 311 kts 151°
2026-04-21 09:09 3.98914 73.15863 9928 ft 296 kts 150°
2026-04-21 09:09 3.97180 73.16823 9780 ft 279 kts 150°
2026-04-21 09:09 3.95688 73.18018 9437 ft 273 kts 124°
2026-04-21 09:09 3.94936 73.19734 9164 ft 269 kts 101°
2026-04-21 09:10 3.94818 73.21576 8868 ft 268 kts 89°
2026-04-21 09:10 3.94837 73.23443 8567 ft 269 kts 90°
2026-04-21 09:10 3.94848 73.25341 8263 ft 274 kts 90°
2026-04-21 09:10 3.94854 73.27268 7948 ft 277 kts 90°
2026-04-21 09:11 3.94857 73.29203 7632 ft 277 kts 90°
2026-04-21 09:11 3.94861 73.31122 7415 ft 272 kts 90°
2026-04-21 09:11 3.94867 73.32987 7130 ft 270 kts 90°
2026-04-21 09:11 3.94873 73.34866 6835 ft 269 kts 90°
2026-04-21 09:12 3.94878 73.36740 6538 ft 269 kts 90°
2026-04-21 09:12 3.94882 73.38614 6234 ft 268 kts 90°
2026-04-21 09:12 3.94887 73.40486 5911 ft 268 kts 90°
2026-04-21 09:12 3.94890 73.42353 5565 ft 269 kts 90°
2026-04-21 09:13 3.94891 73.44210 5214 ft 270 kts 90°
2026-04-21 09:13 3.94893 73.46075 5043 ft 260 kts 90°
2026-04-21 09:13 3.94894 73.47837 4839 ft 244 kts 90°
2026-04-21 09:13 3.94895 73.49480 4698 ft 229 kts 90°
2026-04-21 09:14 3.94948 73.51034 4509 ft 218 kts 77°
2026-04-21 09:14 3.95656 73.52317 4253 ft 209 kts 40°
2026-04-21 09:14 3.96917 73.52880 4005 ft 200 kts
2026-04-21 09:14 3.98286 73.53026 3785 ft 198 kts
2026-04-21 09:15 3.99675 73.53093 3530 ft 199 kts
2026-04-21 09:15 4.01054 73.53108 3272 ft 196 kts
2026-04-21 09:15 4.02403 73.53110 3020 ft 192 kts
2026-04-21 09:15 4.03712 73.53109 2807 ft 183 kts
2026-04-21 09:16 4.04970 73.53107 2548 ft 177 kts
2026-04-21 09:16 4.06152 73.53107 2319 ft 167 kts 360°
2026-04-21 09:16 4.07304 73.53106 2121 ft 166 kts 360°
2026-04-21 09:16 4.08462 73.53106 1938 ft 168 kts 360°
2026-04-21 09:17 4.09635 73.53105 1698 ft 168 kts 360°
2026-04-21 09:17 4.10784 73.53105 1463 ft 162 kts 359°
2026-04-21 09:17 4.11877 73.53104 1273 ft 154 kts 359°
2026-04-21 09:17 4.12939 73.53103 1106 ft 152 kts 360°
2026-04-21 09:18 4.14005 73.53102 894 ft 153 kts 359°
2026-04-21 09:18 4.15066 73.53103 736 ft 153 kts 359°
2026-04-21 09:18 4.16121 73.53103 570 ft 154 kts 359°
2026-04-21 09:18 4.17196 73.53106 336 ft 154 kts 358°
2026-04-21 09:19 4.18269 73.53107 93 ft 153 kts 358°
2026-04-21 09:19 4.19296 73.53098 17 ft 138 kts 359°
2026-04-21 09:19 4.20104 73.53097 17 ft 93 kts 360°
2026-04-21 09:19 4.20595 73.53098 17 ft 41 kts 360°
2026-04-21 09:20 4.20842 73.53098 17 ft 21 kts
2026-04-21 09:20 4.20927 73.53024 17 ft 17 kts 272°
2026-04-21 09:20 4.20907 73.52927 17 ft 14 kts 225°
2026-04-21 09:20 4.20819 73.52893 17 ft 14 kts 192°
2026-04-21 09:21 4.20725 73.52890 17 ft 14 kts 179°
2026-04-21 09:21 4.20629 73.52891 17 ft 14 kts 179°
2026-04-21 09:21 4.20532 73.52893 17 ft 14 kts 179°
2026-04-21 09:21 4.20425 73.52895 17 ft 16 kts 179°
2026-04-21 09:22 4.20310 73.52897 17 ft 17 kts 179°
2026-04-21 09:22 4.20194 73.52899 17 ft 17 kts 179°
2026-04-21 09:22 4.20075 73.52901 17 ft 18 kts 179°
2026-04-21 09:22 4.19944 73.52903 17 ft 19 kts 179°
2026-04-21 09:23 4.19813 73.52904 17 ft 19 kts 179°
2026-04-21 09:23 4.19681 73.52907 17 ft 19 kts 179°
2026-04-21 09:23 4.19549 73.52909 17 ft 19 kts 178°
2026-04-21 09:23 4.19419 73.52912 17 ft 19 kts 179°
2026-04-21 09:24 4.19287 73.52914 17 ft 19 kts 179°
2026-04-21 09:24 4.19155 73.52916 17 ft 19 kts 179°
2026-04-21 09:24 4.19023 73.52918 17 ft 19 kts 179°
2026-04-21 09:24 4.18891 73.52920 17 ft 19 kts 179°
2026-04-21 09:25 4.18761 73.52922 17 ft 19 kts 179°
2026-04-21 09:25 4.18629 73.52925 17 ft 19 kts 179°
2026-04-21 09:25 4.18498 73.52927 17 ft 19 kts 179°
2026-04-21 09:25 4.18366 73.52929 17 ft 19 kts 179°
2026-04-21 09:26 4.18234 73.52931 17 ft 19 kts 179°
2026-04-21 09:26 4.18135 73.52910 17 ft 13 kts 236°
2026-04-21 09:26 4.18096 73.52869 17 ft 8 kts 198°
2026-04-21 09:26 4.18023 73.52866 17 ft 10 kts 180°
2026-04-21 09:27 4.17984 73.52848 17 ft 6 kts 240°
2026-04-21 09:27 4.17975 73.52805 17 ft 4 kts 265°
2026-04-21 09:27 4.17974 73.52782 17 ft 1 kts 267°
2026-04-21 09:27 4.17974 73.52777 17 ft 0 kts 268°
2026-04-21 09:28 4.17974 73.52776 17 ft 0 kts 268°